DW7262 La Rochelle FR current weather conditions

sailwx.info

Wind from 293 at 1 knots gusting 4

Air temperature 17.8° C
Dewpoint 14.8° C

Last reported at 2016-Jun-28 20:43 UTC.
Time now 2016-Jun-28 22:25 UTC

Location: N 45°57' W 001°22'.
View on Google Maps.

See reports from other nearby stations

  
Tides and Currents Weather Stations Pressure Air Temp Water Temp Dewpoint Dewpoint Depression Visibility Wind Speed Wind Dir Waves Ship Positions
date/time (UTC)wind fromknots sea level pressurealtimeterstation pressurevisibilityair tempwater tempwave heightnotes
2016-Jun-28 20:43 293 1 gusting 4 17.8
2016-Jun-28 20:32 281 1 gusting 4 18.3
2016-Jun-28 20:23 293 0 gusting 4 18.3
2016-Jun-28 20:13 283 0 gusting 4 18.3
2016-Jun-28 20:03 279 0 gusting 4 18.3
2016-Jun-28 19:41 323 2 gusting 6 18.3
2016-Jun-28 19:31 278 2 gusting 6 18.3
2016-Jun-28 19:21 293 2 gusting 6 18.3
2016-Jun-28 19:11 293 2 gusting 6 18.3
2016-Jun-28 19:01 271 2 gusting 6 18.9
2016-Jun-28 18:51 301 2 gusting 6 18.9
2016-Jun-28 18:40 298 2 gusting 8 18.9
2016-Jun-28 17:30 278 5 gusting 12 20.0
2016-Jun-28 16:21 291 6 gusting 13 20.0
2016-Jun-28 16:11 273 5 gusting 13 20.6
2016-Jun-28 15:49 275 6 gusting 13 20.0
2016-Jun-28 15:39 285 5 gusting 9 20.0
2016-Jun-28 15:04 256 6 gusting 12 20.0
2016-Jun-28 14:54 247 5 gusting 12 20.0
2016-Jun-28 14:32 246 5 gusting 13 20.0
2016-Jun-28 14:23 259 6 gusting 13 20.0
2016-Jun-28 14:01 263 5 gusting 11 20.0
2016-Jun-28 13:51 248 5 gusting 11 20.0
2016-Jun-28 13:40 233 5 gusting 11 20.6
2016-Jun-28 13:31 266 6 gusting 11 20.6
2016-Jun-28 13:21 257 4 gusting 11 20.0
2016-Jun-28 13:10 279 5 gusting 12 20.6
2016-Jun-28 13:01 238 6 gusting 12 20.6
2016-Jun-28 12:51 249 5 gusting 10 20.6
2016-Jun-28 12:16 246 5 gusting 11 20.6
2016-Jun-28 11:42 240 5 gusting 10 20.0
2016-Jun-28 11:32 210 4 gusting 8 20.0
2016-Jun-28 11:09 225 3 gusting 11 18.9
2016-Jun-28 10:35 249 5 gusting 10 19.4
2016-Jun-28 10:25 224 4 gusting 8 19.4
2016-Jun-28 10:15 257 3 gusting 7 18.9
2016-Jun-28 09:53 276 3 gusting 8 18.3
2016-Jun-28 09:43 245 2 gusting 6 18.3
2016-Jun-28 08:57 225 0 gusting 6 17.8
2016-Jun-28 08:47 269 1 gusting 6 17.8
2016-Jun-28 08:38 271 1 gusting 5 17.8
2016-Jun-28 08:16 309 0 gusting 3 17.8
2016-Jun-28 08:06 304 1 gusting 0 17.8
2016-Jun-28 07:43 285 2 gusting 6 17.8
2016-Jun-28 07:33 261 0 gusting 4 17.2
2016-Jun-28 07:11 307 0 gusting 2 17.2
2016-Jun-28 06:49 235 0 gusting 5 17.2
2016-Jun-28 06:27 278 3 gusting 6 17.2